• In Hungary
  • List of Countries
  • For 7 days
  • Water Temperature
  • Satellite Maps
  • Weather Map
  • News
  • Weather Widgets
  • user-avatar
    Login

    Hourly Weather Marsa Alam

    Today, 19 January, Friday

    Time Temperature Precipitation Wind Pressure Humidity
    00:00 +13°C° 0 mm 3 mps 716 mmHg 37%
    01:00 +12°C° 0 mm 3 mps 715 mmHg 38%
    02:00 +12°C° 0 mm 4 mps 715 mmHg 39%
    03:00 +11°C° 0 mm 4 mps 715 mmHg 39%
    04:00 +11°C° 0 mm 4 mps 715 mmHg 40%
    05:00 +10°C° 0 mm 4 mps 715 mmHg 41%
    06:00 +10°C° 0 mm 5 mps 715 mmHg 39%
    07:00 +10°C° 0 mm 5 mps 716 mmHg 38%
    08:00 +11°C° 0 mm 6 mps 716 mmHg 36%
    09:00 +14°C° 0 mm 6 mps 716 mmHg 33%
    10:00 +15°C° 0 mm 7 mps 717 mmHg 29%
    11:00 +17°C° 0 mm 7 mps 717 mmHg 26%
    12:00 +18°C° 0 mm 7 mps 717 mmHg 24%
    13:00 +18°C° 0 mm 7 mps 717 mmHg 21%
    14:00 +19°C° 0 mm 6 mps 717 mmHg 22%
    15:00 +19°C° 0 mm 6 mps 717 mmHg 25%
    16:00 +17°C° 0 mm 6 mps 717 mmHg 27%
    17:00 +16°C° 0 mm 5 mps 718 mmHg 29%
    18:00 +15°C° 0 mm 5 mps 718 mmHg 33%
    19:00 +14°C° 0 mm 4 mps 718 mmHg 37%
    20:00 +12°C° 0 mm 3 mps 718 mmHg 40%
    21:00 +12°C° 0 mm 3 mps 718 mmHg 43%
    22:00 +11°C° 0 mm 3 mps 719 mmHg 45%
    23:00 +10°C° 0 mm 2 mps 719 mmHg 48%

    Tomorrow, 20 January, Saturday

    Time Temperature Precipitation Wind Pressure Humidity
    00:00 +10°C° 0 mm 3 mps 719 mmHg 50%
    01:00 +10°C° 0 mm 3 mps 719 mmHg 51%
    02:00 +10°C° 0 mm 3 mps 719 mmHg 53%
    03:00 +10°C° 0 mm 3 mps 719 mmHg 58%
    04:00 +9°C° 0 mm 3 mps 719 mmHg 62%
    05:00 +9°C° 0 mm 3 mps 719 mmHg 67%
    06:00 +10°C° 0 mm 3 mps 719 mmHg 67%
    07:00 +11°C° 0 mm 3 mps 720 mmHg 67%
    08:00 +12°C° 0 mm 3 mps 720 mmHg 67%
    09:00 +14°C° 0 mm 4 mps 720 mmHg 62%
    10:00 +15°C° 0 mm 4 mps 720 mmHg 56%
    11:00 +17°C° 0 mm 5 mps 720 mmHg 51%
    12:00 +19°C° 0 mm 5 mps 720 mmHg 48%
    13:00 +19°C° 0 mm 5 mps 719 mmHg 46%
    14:00 +20°C° 0 mm 5 mps 719 mmHg 44%
    15:00 +19°C° 0 mm 5 mps 719 mmHg 48%
    16:00 +17°C° 0 mm 5 mps 719 mmHg 51%
    17:00 +16°C° 0 mm 5 mps 718 mmHg 55%
    18:00 +15°C° 0 mm 4 mps 719 mmHg 61%
    19:00 +14°C° 0 mm 3 mps 719 mmHg 66%
    20:00 +13°C° 0 mm 3 mps 719 mmHg 72%
    21:00 +13°C° 0 mm 3 mps 719 mmHg 75%
    22:00 +13°C° 0 mm 3 mps 719 mmHg 78%
    23:00 +13°C° 0 mm 2 mps 719 mmHg 81%

    Day after tomorrow, 21 January, Sunday

    Time Temperature Precipitation Wind Pressure Humidity
    00:00 +13°C° 0 mm 2 mps 718 mmHg 82%
    01:00 +12°C° 0 mm 2 mps 718 mmHg 84%
    02:00 +12°C° 0 mm 2 mps 718 mmHg 85%
    03:00 +12°C° 0 mm 2 mps 718 mmHg 86%
    04:00 +12°C° 0 mm 2 mps 718 mmHg 87%
    05:00 +12°C° 0 mm 2 mps 717 mmHg 88%
    06:00 +13°C° 0 mm 2 mps 718 mmHg 84%
    07:00 +14°C° 0 mm 2 mps 718 mmHg 81%
    08:00 +14°C° 0 mm 2 mps 718 mmHg 77%
    09:00 +17°C° 0 mm 2 mps 718 mmHg 66%
    10:00 +19°C° 0 mm 3 mps 718 mmHg 54%
    11:00 +21°C° 0 mm 3 mps 718 mmHg 43%
    12:00 +22°C° 0 mm 3 mps 718 mmHg 40%
    13:00 +22°C° 0 mm 3 mps 717 mmHg 37%
    14:00 +24°C° 0 mm 3 mps 716 mmHg 34%
    15:00 +22°C° 0 mm 3 mps 716 mmHg 37%
    16:00 +22°C° 0 mm 3 mps 716 mmHg 41%
    17:00 +21°C° 0 mm 3 mps 716 mmHg 44%
    18:00 +20°C° 0 mm 2 mps 716 mmHg 50%
    19:00 +18°C° 0 mm 2 mps 716 mmHg 56%
    20:00 +18°C° 0 mm 1 mps 716 mmHg 62%
    21:00 +16°C° 0 mm 1 mps 716 mmHg 64%
    22:00 +16°C° 0 mm 1 mps 716 mmHg 66%
    23:00 +14°C° 0 mm 0 mps 716 mmHg 68%

    22 January, Monday

    Time Temperature Precipitation Wind Pressure Humidity
    00:00 +14°C° 0 mm 0 mps 716 mmHg 68%
    01:00 +15°C° 0 mm 1 mps 715 mmHg 67%
    02:00 +14°C° 0 mm 1 mps 715 mmHg 67%
    03:00 +14°C° 0 mm 1 mps 714 mmHg 68%
    04:00 +14°C° 0 mm 1 mps 714 mmHg 69%
    05:00 +13°C° 0 mm 1 mps 714 mmHg 69%
    06:00 +15°C° 0 mm 1 mps 715 mmHg 62%
    07:00 +18°C° 0 mm 1 mps 715 mmHg 54%
    08:00 +19°C° 0 mm 1 mps 716 mmHg 47%
    09:00 +21°C° 0 mm 1 mps 716 mmHg 40%
    10:00 +21°C° 0 mm 2 mps 716 mmHg 34%
    11:00 +24°C° 0 mm 2 mps 716 mmHg 27%
    12:00 +25°C° 0 mm 3 mps 716 mmHg 24%
    13:00 +25°C° 0 mm 3 mps 715 mmHg 20%
    14:00 +26°C° 0 mm 4 mps 714 mmHg 17%
    15:00 +25°C° 0 mm 4 mps 714 mmHg 17%
    16:00 +23°C° 0 mm 4 mps 714 mmHg 17%
    17:00 +23°C° 0 mm 4 mps 714 mmHg 18%
    18:00 +21°C° 0 mm 3 mps 715 mmHg 19%
    19:00 +20°C° 0 mm 3 mps 715 mmHg 20%
    20:00 +18°C° 0 mm 2 mps 716 mmHg 20%
    21:00 +17°C° 0 mm 3 mps 716 mmHg 21%
    22:00 +16°C° 0 mm 3 mps 716 mmHg 21%
    23:00 +16°C° 0 mm 3 mps 716 mmHg 22%

    23 January, Tuesday

    Time Temperature Precipitation Wind Pressure Humidity
    00:00 +14°C° 0 mm 3 mps 716 mmHg 28%
    01:00 +13°C° 0 mm 4 mps 716 mmHg 33%
    02:00 +13°C° 0 mm 4 mps 715 mmHg 39%
    03:00 +12°C° 0 mm 4 mps 715 mmHg 45%
    04:00 +11°C° 0 mm 4 mps 715 mmHg 50%
    05:00 +11°C° 0 mm 4 mps 715 mmHg 55%
    06:00 +12°C° 0 mm 4 mps 716 mmHg 55%
    07:00 +12°C° 0 mm 4 mps 716 mmHg 55%
    08:00 +13°C° 0 mm 5 mps 717 mmHg 56%
    09:00 +15°C° 0 mm 5 mps 717 mmHg 49%
    10:00 +16°C° 0 mm 5 mps 718 mmHg 42%
    11:00 +19°C° 0 mm 6 mps 718 mmHg 35%
    12:00 +20°C° 0 mm 6 mps 717 mmHg 31%
    13:00 +21°C° 0 mm 6 mps 717 mmHg 27%
    14:00 +21°C° 0 mm 6 mps 716 mmHg 23%
    15:00 +21°C° 0 mm 6 mps 716 mmHg 23%
    16:00 +20°C° 0 mm 6 mps 716 mmHg 24%
    17:00 +19°C° 0 mm 6 mps 716 mmHg 25%
    18:00 +17°C° 0 mm 5 mps 716 mmHg 28%
    19:00 +15°C° 0 mm 4 mps 717 mmHg 31%
    20:00 +14°C° 0 mm 4 mps 717 mmHg 34%
    21:00 +14°C° 0 mm 3 mps 717 mmHg 38%
    22:00 +13°C° 0 mm 3 mps 717 mmHg 41%
    23:00 +12°C° 0 mm 3 mps 717 mmHg 45%

    24 January, Wednesday

    Time Temperature Precipitation Wind Pressure Humidity
    00:00 +13°C° 0 mm 2 mps 717 mmHg 48%
    01:00 +12°C° 0 mm 2 mps 716 mmHg 51%
    02:00 +12°C° 0 mm 2 mps 716 mmHg 54%
    03:00 +10°C° 0 mm 2 mps 716 mmHg 55%
    04:00 +10°C° 0 mm 2 mps 716 mmHg 57%
    05:00 +9°C° 0 mm 2 mps 716 mmHg 59%
    06:00 +10°C° 0 mm 2 mps 716 mmHg 55%
    07:00 +13°C° 0 mm 2 mps 717 mmHg 51%
    08:00 +14°C° 0 mm 2 mps 717 mmHg 47%
    09:00 +15°C° 0 mm 2 mps 717 mmHg 46%
    10:00 +17°C° 0 mm 3 mps 717 mmHg 44%
    11:00 +18°C° 0 mm 3 mps 718 mmHg 42%
    12:00 +19°C° 0 mm 3 mps 717 mmHg 40%
    13:00 +20°C° 0 mm 4 mps 717 mmHg 37%
    14:00 +21°C° 0 mm 4 mps 716 mmHg 34%
    15:00 +20°C° 0 mm 4 mps 716 mmHg 37%
    16:00 +20°C° 0 mm 4 mps 716 mmHg 40%
    17:00 +19°C° 0 mm 4 mps 716 mmHg 42%
    18:00 +18°C° 0 mm 4 mps 716 mmHg 49%
    19:00 +17°C° 0 mm 3 mps 716 mmHg 56%
    20:00 +16°C° 0 mm 3 mps 716 mmHg 63%
    21:00 +14°C° 0 mm 3 mps 716 mmHg 68%
    22:00 +14°C° 0 mm 2 mps 716 mmHg 72%
    23:00 +14°C° 0 mm 2 mps 716 mmHg 77%
    Show more